QPF
0.00 0.00 0.00 0.00 0.00 0.00 0.01 0.00 0.01 0.02 0.04 0.05 0.09 0.14 0.18 0.18 0.16 0.15 0.18 0.24 0.32 0.33 0.31 0.29 0.26 0.23 0.18 0.14 0.10 0.06 0.03 0.02 0.01 0.00 0.00 0.00 0.00 0.00 0.00 0.00 0.00 0.00 0.00
0.00 0.00 0.00 0.00 0.00 0.01 0.01 0.01 0.02 0.06 0.13 0.21 0.31 0.37 0.37 0.33 0.29 0.31 0.38 0.47 0.52 0.49 0.46 0.43 0.38 0.31 0.21 0.14 0.08 0.04 0.02 0.00 0.00 0.00 0.00 0.00 0.00 0.00 0.00 0.00 0.00 0.00 0.00
0.00 0.00 0.00 0.00 0.00 0.01 0.01 0.02 0.05 0.13 0.29 0.44 0.57 0.59 0.54 0.47 0.42 0.43 0.49 0.56 0.59 0.58 0.55 0.45 0.33 0.21 0.12 0.07 0.04 0.01 0.00 0.00 0.00 0.00 0.00 0.00 0.00 0.00 0.00 0.00 0.00 0.00 0.00
0.00 0.00 0.00 0.00 0.00 0.01 0.03 0.04 0.08 0.24 0.45 0.59 0.72 0.76 0.70 0.62 0.59 0.59 0.61 0.62 0.60 0.54 0.41 0.26 0.15 0.08 0.05 0.04 0.02 0.00 0.00 0.00 0.00 0.00 0.00 0.00 0.00 0.00 0.00 0.00 0.00 0.00 0.00
0.00 0.00 0.00 0.00 0.01 0.03 0.04 0.05 0.14 0.35 0.58 0.73 0.85 0.86 0.83 0.77 0.69 0.64 0.63 0.58 0.47 0.31 0.17 0.09 0.06 0.04 0.02 0.01 0.00 0.00 0.00 0.00 0.00 0.00 0.00 0.00 0.00 0.00 0.00 0.00 0.00 0.00 0.00
0.00 0.00 0.00 0.01 0.02 0.04 0.05 0.09 0.23 0.49 0.73 0.86 0.91 0.87 0.78 0.67 0.59 0.52 0.41 0.32 0.22 0.14 0.08 0.03 0.01 0.01 0.00 0.00 0.00 0.00 0.00 0.00 0.00 0.00 0.00 0.00 0.00 0.00 0.00 0.00 0.00 0.00 0.00
0.00 0.00 0.00 0.02 0.05 0.07 0.12 0.22 0.41 0.64 0.80 0.85 0.79 0.69 0.59 0.47 0.36 0.27 0.18 0.11 0.06 0.03 0.01 0.01 0.00 0.00 0.00 0.00 0.00 0.00 0.00 0.00 0.00 0.00 0.00 0.00 0.00 0.00 0.00 0.00 0.00 0.00 0.00
0.00 0.01 0.01 0.03 0.08 0.12 0.17 0.29 0.47 0.62 0.65 0.60 0.58 0.52 0.43 0.32 0.21 0.12 0.06 0.02 0.01 0.00 0.00 0.00 0.00 0.00 0.00 0.00 0.00 0.00 0.00 0.00 0.00 0.00 0.00 0.00 0.00 0.00 0.00 0.00 0.00 0.00 0.00
0.01 0.02 0.02 0.04 0.09 0.13 0.18 0.26 0.35 0.42 0.40 0.37 0.36 0.32 0.24 0.15 0.09 0.05 0.02 0.01 0.00 0.00 0.00 0.00 0.00 0.00 0.00 0.00 0.00 0.00 0.00 0.00 0.00 0.00 0.00 0.00 0.00 0.00 0.00 0.00 0.00 0.00 0.00
0.03 0.03 0.04 0.06 0.09 0.12 0.16 0.20 0.22 0.23 0.24 0.23 0.21 0.17 0.11 0.06 0.03 0.02 0.01 0.00 0.00 0.00 0.00 0.00 0.00 0.00 0.00 0.00 0.00 0.00 0.00 0.00 0.00 0.00 0.00 0.00 0.00 0.00 0.00 0.00 0.00 0.00 0.00
0.03 0.03 0.04 0.05 0.07 0.08 0.10 0.11 0.14 0.17 0.18 0.16 0.12 0.08 0.05 0.03 0.01 0.01 0.00 0.00 0.00 0.00 0.00 0.00 0.00 0.00 0.00 0.00 0.00 0.00 0.00 0.00 0.00 0.00 0.00 0.00 0.00 0.00 0.00 0.00 0.00 0.00 0.00
0.03 0.03 0.03 0.03 0.04 0.06 0.07 0.09 0.10 0.10 0.09 0.07 0.05 0.03 0.02 0.01 0.01 0.00 0.00 0.00 0.00 0.00 0.00 0.00 0.00 0.00 0.00 0.00 0.00 0.00 0.00 0.00 0.00 0.00 0.00 0.00 0.00 0.00 0.00 0.00 0.00 0.00 0.00
0.02 0.02 0.03 0.03 0.04 0.06 0.06 0.06 0.05 0.04 0.03 0.03 0.02 0.01 0.01 0.00 0.00 0.00 0.00 0.00 0.00 0.00 0.00 0.00 0.00 0.00 0.00 0.00 0.00 0.00 0.00 0.00 0.00 0.00 0.00 0.00 0.00 0.00 0.00 0.00 0.00 0.00 0.00
0.02 0.02 0.03 0.03 0.03 0.03 0.03 0.03 0.02 0.01 0.01 0.01 0.01 0.00 0.00 0.00 0.00 0.00 0.00 0.00 0.00 0.00 0.00 0.00 0.00 0.00 0.00 0.00 0.00 0.00 0.00 0.00 0.00 0.00 0.00 0.00 0.00 0.00 0.00 0.00 0.00 0.00 0.01
0.02 0.03 0.02 0.02 0.02 0.02 0.01 0.01 0.01 0.00 0.00 0.00 0.00 0.00 0.01 0.01 0.01 0.01 0.01 0.01 0.01 0.00 0.00 0.00 0.00 0.00 0.00 0.00 0.00 0.00 0.00 0.00 0.00 0.00 0.00 0.00 0.00 0.00 0.00 0.01 0.01 0.02 0.02
0.02 0.01 0.01 0.01 0.01 0.01 0.00 0.00 0.00 0.01 0.01 0.01 0.02 0.02 0.02 0.02 0.02 0.01 0.01 0.01 0.00 0.00 0.00 0.00 0.00 0.00 0.00 0.00 0.00 0.00 0.00 0.00 0.00 0.00 0.00 0.00 0.00 0.00 0.00 0.01 0.02 0.04 0.04
0.02 0.01 0.00 0.00 0.00 0.00 0.00 0.01 0.02 0.02 0.02 0.03 0.03 0.04 0.04 0.05 0.04 0.02 0.01 0.00 0.00 0.00 0.00 0.00 0.00 0.00 0.00 0.00 0.00 0.00 0.00 0.00 0.00 0.00 0.00 0.00 0.00 0.00 0.00 0.01 0.01 0.01 0.01
0.01 0.00 0.00 0.00 0.00 0.01 0.01 0.02 0.03 0.04 0.06 0.07 0.07 0.07 0.07 0.05 0.02 0.01 0.00 0.00 0.00 0.00 0.00 0.00 0.00 0.00 0.00 0.00 0.00 0.00 0.00 0.00 0.00 0.00 0.00 0.00 0.00 0.00 0.01 0.01 0.01 0.00 0.00
0.00 0.00 0.00 0.00 0.01 0.01 0.03 0.04 0.06 0.08 0.09 0.09 0.07 0.05 0.04 0.02 0.00 0.00 0.00 0.00 0.00 0.00 0.00 0.00 0.00 0.00 0.00 0.00 0.00 0.00 0.00 0.00 0.00 0.00 0.00 0.00 0.00 0.00 0.01 0.01 0.01 0.01 0.00
0.00 0.00 0.00 0.00 0.01 0.02 0.03 0.05 0.06 0.06 0.05 0.03 0.02 0.01 0.01 0.00 0.00 0.00 0.00 0.00 0.00 0.00 0.00 0.00 0.00 0.00 0.00 0.00 0.00 0.00 0.00 0.00 0.00 0.00 0.00 0.00 0.00 0.01 0.01 0.02 0.02 0.03 0.02
0.00 0.00 0.00 0.01 0.01 0.02 0.02 0.02 0.03 0.02 0.01 0.00 0.00 0.00 0.00 0.00 0.00 0.00 0.00 0.00 0.00 0.00 0.00 0.00 0.00 0.00 0.00 0.00 0.00 0.00 0.00 0.00 0.00 0.00 0.00 0.00 0.00 0.01 0.01 0.02 0.03 0.04 0.05
0.00 0.00 0.01 0.01 0.01 0.01 0.01 0.01 0.01 0.01 0.00 0.00 0.00 0.00 0.00 0.00 0.00 0.00 0.00 0.00 0.00 0.00 0.00 0.00 0.00 0.00 0.00 0.00 0.00 0.00 0.00 0.00 0.00 0.00 0.00 0.00 0.00 0.01 0.02 0.02 0.02 0.03 0.04
0.01 0.01 0.01 0.01 0.01 0.01 0.00 0.00 0.00 0.00 0.00 0.00 0.00 0.00 0.00 0.00 0.00 0.00 0.00 0.00 0.00 0.00 0.00 0.00 0.00 0.00 0.00 0.00 0.00 0.00 0.00 0.00 0.00 0.00 0.00 0.00 0.00 0.01 0.02 0.02 0.04 0.03 0.03
0.01 0.01 0.01 0.00 0.00 0.00 0.00 0.00 0.00 0.00 0.00 0.00 0.00 0.00 0.00 0.00 0.00 0.00 0.00 0.00 0.00 0.00 0.00 0.00 0.00 0.00 0.00 0.00 0.00 0.00 0.00 0.00 0.00 0.00 0.00 0.00 0.00 0.01 0.02 0.03 0.04 0.04 0.04
0.01 0.01 0.00 0.00 0.00 0.00 0.00 0.00 0.00 0.00 0.00 0.00 0.00 0.00 0.00 0.00 0.00 0.00 0.00 0.00 0.00 0.00 0.00 0.00 0.00 0.00 0.00 0.00 0.00 0.00 0.00 0.00 0.00 0.00 0.00 0.00 0.00 0.01 0.01 0.03 0.04 0.04 0.03
0.01 0.00 0.00 0.00 0.00 0.00 0.00 0.00 0.00 0.00 0.00 0.00 0.00 0.00 0.00 0.00 0.00 0.00 0.00 0.00 0.00 0.00 0.00 0.00 0.00 0.00 0.00 0.00 0.00 0.00 0.00 0.00 0.00 0.00 0.00 0.01 0.01 0.02 0.03 0.05 0.07 0.05 0.04
MSLP
1008.33 1008.24 1008.20 1008.23 1008.35 1008.56 1008.90 1009.36 1009.96 1010.66 1011.43 1012.21 1012.95 1013.63 1014.21 1014.70 1015.11 1015.49 1015.87 1016.28 1016.76 1017.31 1017.91 1018.55 1019.18 1019.78 1020.30 1020.75 1021.11 1021.40 1021.62 1021.80 1021.94 1022.07 1022.18 1022.25 1022.30 1022.30 1022.26 1022.19 1022.07 1021.94 1021.81
1007.85 1007.74 1007.70 1007.74 1007.85 1008.08 1008.44 1008.95 1009.62 1010.41 1011.29 1012.18 1013.05 1013.83 1014.50 1015.05 1015.51 1015.90 1016.28 1016.68 1017.15 1017.68 1018.27 1018.89 1019.50 1020.08 1020.58 1021.00 1021.33 1021.59 1021.79 1021.96 1022.11 1022.25 1022.37 1022.48 1022.54 1022.56 1022.52 1022.43 1022.31 1022.16 1022.00
1007.48 1007.40 1007.38 1007.44 1007.59 1007.85 1008.24 1008.80 1009.53 1010.40 1011.36 1012.36 1013.32 1014.19 1014.94 1015.55 1016.03 1016.43 1016.81 1017.19 1017.63 1018.13 1018.68 1019.26 1019.83 1020.36 1020.81 1021.18 1021.46 1021.68 1021.86 1022.02 1022.17 1022.32 1022.47 1022.60 1022.69 1022.72 1022.69 1022.59 1022.45 1022.29 1022.11
1007.36 1007.30 1007.34 1007.44 1007.63 1007.92 1008.35 1008.95 1009.72 1010.63 1011.65 1012.71 1013.73 1014.66 1015.45 1016.09 1016.59 1017.00 1017.37 1017.73 1018.14 1018.60 1019.10 1019.63 1020.15 1020.61 1021.01 1021.32 1021.56 1021.74 1021.89 1022.03 1022.19 1022.35 1022.52 1022.66 1022.77 1022.81 1022.78 1022.68 1022.53 1022.33 1022.13
1007.53 1007.53 1007.61 1007.77 1007.99 1008.32 1008.77 1009.38 1010.15 1011.08 1012.10 1013.17 1014.20 1015.14 1015.95 1016.60 1017.11 1017.51 1017.87 1018.22 1018.60 1019.03 1019.49 1019.97 1020.44 1020.85 1021.19 1021.46 1021.65 1021.80 1021.93 1022.06 1022.21 1022.38 1022.55 1022.71 1022.82 1022.87 1022.83 1022.71 1022.53 1022.30 1022.06
1008.01 1008.07 1008.21 1008.41 1008.67 1009.00 1009.45 1010.04 1010.79 1011.67 1012.65 1013.68 1014.67 1015.59 1016.37 1017.00 1017.51 1017.91 1018.26 1018.60 1018.96 1019.37 1019.81 1020.26 1020.69 1021.07 1021.38 1021.61 1021.77 1021.90 1022.01 1022.13 1022.27 1022.44 1022.61 1022.76 1022.87 1022.89 1022.84 1022.69 1022.47 1022.20 1021.91
1008.76 1008.88 1009.07 1009.30 1009.57 1009.91 1010.32 1010.86 1011.54 1012.35 1013.25 1014.19 1015.11 1015.96 1016.69 1017.29 1017.77 1018.17 1018.52 1018.86 1019.23 1019.63 1020.06 1020.50 1020.92 1021.28 1021.57 1021.78 1021.94 1022.05 1022.15 1022.26 1022.39 1022.54 1022.69 1022.82 1022.90 1022.90 1022.81 1022.62 1022.36 1022.04 1021.70
1009.70 1009.87 1010.10 1010.35 1010.63 1010.93 1011.30 1011.77 1012.36 1013.06 1013.85 1014.68 1015.50 1016.26 1016.93 1017.49 1017.94 1018.33 1018.68 1019.03 1019.41 1019.82 1020.27 1020.71 1021.12 1021.48 1021.77 1021.98 1022.13 1022.24 1022.33 1022.42 1022.54 1022.67 1022.79 1022.88 1022.92 1022.88 1022.74 1022.51 1022.21 1021.85 1021.46
1010.72 1010.95 1011.21 1011.47 1011.73 1012.00 1012.31 1012.70 1013.19 1013.78 1014.45 1015.17 1015.88 1016.55 1017.15 1017.66 1018.09 1018.47 1018.83 1019.19 1019.58 1020.01 1020.46 1020.91 1021.33 1021.69 1021.98 1022.19 1022.34 1022.44 1022.53 1022.61 1022.70 1022.80 1022.88 1022.93 1022.92 1022.83 1022.65 1022.38 1022.03 1021.63 1021.20
1011.74 1012.02 1012.30 1012.57 1012.81 1013.04 1013.30 1013.61 1014.01 1014.50 1015.07 1015.68 1016.30 1016.89 1017.43 1017.90 1018.31 1018.68 1019.04 1019.41 1019.81 1020.25 1020.70 1021.15 1021.56 1021.92 1022.20 1022.41 1022.55 1022.65 1022.72 1022.78 1022.85 1022.91 1022.95 1022.95 1022.90 1022.76 1022.53 1022.22 1021.84 1021.41 1020.95
1012.71 1013.04 1013.34 1013.60 1013.82 1014.02 1014.23 1014.49 1014.83 1015.24 1015.73 1016.26 1016.81 1017.34 1017.83 1018.27 1018.67 1019.03 1019.39 1019.76 1020.16 1020.59 1021.03 1021.45 1021.85 1022.18 1022.44 1022.63 1022.76 1022.84 1022.89 1022.93 1022.97 1022.99 1022.99 1022.94 1022.84 1022.65 1022.38 1022.03 1021.62 1021.16 1020.68
1013.63 1013.99 1014.31 1014.56 1014.77 1014.94 1015.12 1015.34 1015.63 1016.00 1016.44 1016.93 1017.43 1017.93 1018.39 1018.81 1019.19 1019.55 1019.90 1020.27 1020.65 1021.05 1021.46 1021.85 1022.20 1022.49 1022.71 1022.87 1022.97 1023.02 1023.04 1023.05 1023.05 1023.04 1022.99 1022.90 1022.75 1022.51 1022.20 1021.82 1021.37 1020.89 1020.39
1014.51 1014.90 1015.22 1015.47 1015.65 1015.81 1015.97 1016.17 1016.44 1016.79 1017.21 1017.67 1018.15 1018.63 1019.08 1019.49 1019.86 1020.22 1020.56 1020.90 1021.26 1021.62 1021.98 1022.31 1022.60 1022.84 1023.01 1023.11 1023.17 1023.18 1023.17 1023.14 1023.11 1023.05 1022.96 1022.82 1022.62 1022.33 1021.98 1021.55 1021.06 1020.55 1020.02
1015.39 1015.79 1016.11 1016.34 1016.50 1016.64 1016.79 1016.98 1017.25 1017.59 1018.00 1018.46 1018.93 1019.40 1019.84 1020.25 1020.62 1020.97 1021.30 1021.62 1021.94 1022.26 1022.56 1022.83 1023.05 1023.21 1023.32 1023.36 1023.37 1023.33 1023.28 1023.21 1023.13 1023.03 1022.89 1022.70 1022.44 1022.10 1021.69 1021.21 1020.68 1020.13 1019.56
1016.30 1016.70 1016.99 1017.19 1017.33 1017.45 1017.59 1017.78 1018.04 1018.38 1018.79 1019.24 1019.71 1020.18 1020.62 1021.02 1021.39 1021.73 1022.04 1022.34 1022.63 1022.90 1023.14 1023.35 1023.50 1023.59 1023.63 1023.61 1023.56 1023.47 1023.37 1023.25 1023.12 1022.97 1022.78 1022.53 1022.21 1021.81 1021.34 1020.80 1020.21 1019.61 1019.00
1017.24 1017.61 1017.87 1018.04 1018.15 1018.24 1018.36 1018.54 1018.80 1019.14 1019.54 1019.98 1020.45 1020.90 1021.34 1021.73 1022.09 1022.42 1022.72 1023.00 1023.25 1023.49 1023.68 1023.83 1023.92 1023.95 1023.93 1023.85 1023.73 1023.59 1023.43 1023.26 1023.08 1022.87 1022.61 1022.30 1021.92 1021.45 1020.91 1020.31 1019.67 1019.01 1018.36
1018.18 1018.52 1018.73 1018.86 1018.93 1019.00 1019.10 1019.27 1019.52 1019.84 1020.23 1020.66 1021.10 1021.54 1021.95 1022.33 1022.68 1022.99 1023.28 1023.54 1023.78 1023.98 1024.14 1024.25 1024.29 1024.27 1024.19 1024.05 1023.88 1023.68 1023.46 1023.24 1022.99 1022.72 1022.40 1022.02 1021.57 1021.05 1020.44 1019.79 1019.09 1018.38 1017.69
1019.09 1019.38 1019.55 1019.63 1019.67 1019.72 1019.80 1019.95 1020.18 1020.49 1020.86 1021.26 1021.68 1022.08 1022.47 1022.83 1023.15 1023.45 1023.72 1023.97 1024.19 1024.38 1024.51 1024.58 1024.59 1024.53 1024.39 1024.21 1023.98 1023.73 1023.45 1023.17 1022.86 1022.52 1022.14 1021.71 1021.20 1020.61 1019.96 1019.26 1018.52 1017.78 1017.06
1019.90 1020.15 1020.28 1020.33 1020.35 1020.38 1020.45 1020.59 1020.81 1021.09 1021.43 1021.80 1022.19 1022.56 1022.91 1023.24 1023.54 1023.82 1024.08 1024.31 1024.52 1024.69 1024.80 1024.85 1024.82 1024.72 1024.55 1024.32 1024.04 1023.73 1023.40 1023.05 1022.69 1022.29 1021.86 1021.37 1020.82 1020.19 1019.51 1018.78 1018.03 1017.27 1016.55
1020.59 1020.80 1020.90 1020.93 1020.94 1020.97 1021.04 1021.18 1021.39 1021.66 1021.98 1022.32 1022.66 1023.00 1023.31 1023.61 1023.88 1024.13 1024.37 1024.59 1024.78 1024.94 1025.03 1025.06 1025.01 1024.87 1024.66 1024.39 1024.06 1023.70 1023.32 1022.92 1022.50 1022.05 1021.57 1021.05 1020.46 1019.82 1019.13 1018.40 1017.65 1016.91 1016.20
1021.13 1021.31 1021.40 1021.43 1021.44 1021.48 1021.56 1021.71 1021.92 1022.19 1022.49 1022.80 1023.12 1023.42 1023.70 1023.96 1024.20 1024.43 1024.65 1024.85 1025.02 1025.15 1025.23 1025.23 1025.15 1024.98 1024.74 1024.43 1024.06 1023.65 1023.22 1022.77 1022.31 1021.82 1021.31 1020.77 1020.17 1019.53 1018.85 1018.13 1017.41 1016.70 1016.02
1021.53 1021.70 1021.78 1021.82 1021.85 1021.91 1022.02 1022.19 1022.41 1022.68 1022.96 1023.26 1023.55 1023.82 1024.08 1024.31 1024.52 1024.73 1024.92 1025.09 1025.24 1025.35 1025.40 1025.37 1025.26 1025.07 1024.79 1024.44 1024.03 1023.59 1023.12 1022.63 1022.14 1021.63 1021.11 1020.55 1019.96 1019.34 1018.68 1018.00 1017.31 1016.63 1015.99
1021.82 1021.97 1022.06 1022.12 1022.18 1022.27 1022.41 1022.59 1022.83 1023.10 1023.38 1023.67 1023.94 1024.19 1024.42 1024.62 1024.82 1025.00 1025.16 1025.31 1025.43 1025.51 1025.53 1025.48 1025.34 1025.11 1024.81 1024.43 1024.00 1023.53 1023.03 1022.52 1022.01 1021.50 1020.97 1020.42 1019.85 1019.24 1018.62 1017.97 1017.32 1016.68 1016.07
1022.03 1022.18 1022.27 1022.35 1022.44 1022.56 1022.71 1022.92 1023.16 1023.43 1023.70 1023.98 1024.24 1024.47 1024.68 1024.87 1025.04 1025.20 1025.35 1025.48 1025.57 1025.62 1025.62 1025.53 1025.37 1025.13 1024.80 1024.40 1023.96 1023.47 1022.97 1022.46 1021.94 1021.42 1020.90 1020.37 1019.82 1019.24 1018.64 1018.03 1017.41 1016.80 1016.21
1022.20 1022.35 1022.46 1022.55 1022.65 1022.78 1022.95 1023.15 1023.39 1023.65 1023.91 1024.17 1024.42 1024.64 1024.83 1025.01 1025.17 1025.32 1025.45 1025.55 1025.63 1025.66 1025.63 1025.53 1025.35 1025.09 1024.76 1024.36 1023.91 1023.43 1022.94 1022.43 1021.93 1021.42 1020.92 1020.40 1019.87 1019.31 1018.74 1018.14 1017.54 1016.95 1016.37
1022.37 1022.52 1022.64 1022.73 1022.84 1022.96 1023.12 1023.31 1023.52 1023.76 1024.00 1024.24 1024.46 1024.67 1024.85 1025.02 1025.18 1025.31 1025.43 1025.53 1025.59 1025.60 1025.56 1025.45 1025.27 1025.01 1024.68 1024.30 1023.87 1023.41 1022.94 1022.45 1021.97 1021.49 1021.00 1020.50 1019.99 1019.45 1018.89 1018.30 1017.71 1017.12 1016.53
Thickness
5799 5796 5795 5794 5791 5787 5781 5775 5766 5758 5749 5740 5733 5724 5714 5708 5702 5699 5695 5692 5686 5680 5674 5667 5662 5658 5652 5647 5645 5642 5638 5634 5632 5630 5625 5619 5616 5613 5610 5608 5605 5602 5600
5787 5788 5791 5791 5790 5786 5779 5772 5764 5755 5746 5738 5728 5719 5708 5699 5692 5686 5683 5680 5675 5670 5665 5660 5655 5649 5643 5638 5635 5633 5628 5622 5620 5619 5615 5609 5605 5601 5597 5594 5591 5588 5585
5782 5785 5786 5786 5784 5781 5777 5770 5761 5751 5742 5732 5719 5709 5698 5689 5680 5675 5673 5670 5666 5662 5657 5652 5646 5639 5634 5628 5625 5623 5619 5613 5608 5605 5602 5598 5595 5587 5584 5581 5577 5573 5570
5781 5783 5782 5780 5779 5778 5773 5765 5755 5745 5735 5726 5715 5703 5691 5679 5672 5667 5662 5659 5656 5652 5647 5642 5635 5629 5624 5620 5616 5612 5608 5604 5599 5593 5587 5583 5578 5574 5571 5568 5563 5559 5556
5772 5777 5777 5775 5772 5769 5763 5756 5746 5736 5726 5717 5707 5696 5685 5673 5664 5658 5653 5649 5646 5641 5637 5633 5627 5621 5616 5611 5606 5601 5597 5593 5587 5581 5575 5568 5561 5557 5555 5554 5551 5546 5542
5762 5765 5764 5762 5758 5755 5751 5744 5736 5724 5714 5704 5693 5684 5675 5665 5656 5649 5644 5639 5636 5632 5628 5623 5618 5612 5606 5601 5596 5590 5585 5580 5574 5568 5562 5556 5551 5546 5540 5538 5539 5539 5536
5748 5749 5748 5746 5743 5740 5735 5729 5722 5710 5701 5693 5682 5674 5665 5657 5650 5642 5636 5631 5627 5622 5617 5613 5607 5601 5596 5590 5584 5579 5573 5567 5561 5555 5549 5542 5537 5531 5526 5523 5523 5524 5524
5734 5733 5732 5730 5727 5723 5718 5713 5707 5698 5691 5683 5674 5666 5657 5649 5641 5635 5629 5625 5620 5614 5608 5602 5596 5590 5584 5578 5572 5567 5561 5555 5549 5543 5536 5530 5523 5517 5511 5507 5505 5507 5509
5719 5718 5715 5712 5709 5705 5701 5697 5692 5686 5678 5671 5665 5655 5647 5640 5633 5627 5621 5616 5610 5604 5597 5591 5584 5578 5572 5566 5560 5554 5547 5541 5535 5529 5522 5516 5510 5504 5497 5491 5485 5481 5487
5704 5702 5699 5696 5692 5689 5686 5682 5677 5671 5664 5657 5650 5642 5635 5629 5622 5616 5610 5604 5598 5592 5585 5579 5572 5566 5560 5553 5546 5539 5532 5526 5520 5514 5507 5501 5494 5488 5481 5474 5466 5459 5457
5689 5687 5683 5680 5677 5674 5671 5666 5660 5655 5649 5642 5635 5628 5621 5615 5610 5603 5597 5591 5585 5578 5572 5565 5559 5552 5545 5538 5531 5524 5518 5512 5505 5498 5492 5485 5478 5472 5465 5458 5451 5444 5438
5674 5672 5670 5667 5664 5660 5656 5652 5646 5640 5633 5627 5621 5614 5608 5603 5596 5588 5582 5576 5570 5563 5557 5550 5544 5537 5529 5522 5516 5510 5503 5496 5489 5483 5476 5470 5464 5458 5451 5445 5438 5432 5425
5659 5658 5656 5653 5649 5645 5641 5637 5631 5625 5619 5613 5607 5600 5594 5587 5579 5572 5566 5560 5553 5547 5541 5534 5528 5521 5513 5507 5500 5494 5487 5480 5473 5467 5461 5456 5451 5446 5440 5433 5427 5421 5415
5643 5641 5638 5635 5632 5629 5625 5621 5615 5609 5604 5598 5591 5584 5576 5569 5562 5556 5550 5543 5537 5531 5524 5518 5511 5504 5497 5491 5485 5478 5471 5465 5459 5454 5449 5444 5439 5435 5429 5424 5418 5412 5407
5627 5624 5620 5617 5613 5610 5607 5604 5599 5593 5587 5581 5574 5567 5560 5552 5546 5539 5533 5527 5521 5514 5507 5501 5494 5488 5482 5476 5470 5464 5458 5452 5447 5442 5437 5432 5429 5425 5419 5414 5409 5404 5401
5611 5607 5604 5601 5597 5594 5591 5587 5582 5576 5571 5564 5556 5550 5543 5536 5530 5523 5517 5510 5503 5496 5490 5484 5479 5473 5468 5462 5457 5451 5445 5440 5436 5432 5428 5423 5420 5415 5410 5405 5402 5400 5398
5595 5590 5585 5583 5580 5577 5574 5570 5565 5559 5554 5547 5540 5533 5527 5520 5514 5508 5500 5493 5486 5480 5474 5469 5464 5459 5454 5449 5443 5438 5434 5430 5426 5422 5418 5415 5412 5408 5404 5402 5400 5399 5398
5579 5573 5569 5566 5562 5559 5556 5552 5547 5542 5536 5529 5523 5516 5510 5504 5497 5490 5483 5476 5470 5464 5459 5454 5449 5445 5441 5436 5431 5427 5423 5419 5416 5413 5410 5407 5405 5403 5401 5400 5401 5402 5402
5561 5557 5553 5550 5546 5542 5538 5534 5529 5523 5518 5512 5506 5500 5494 5488 5480 5473 5466 5460 5455 5450 5445 5439 5435 5431 5427 5423 5419 5416 5412 5409 5407 5406 5404 5403 5402 5400 5399 5400 5402 5404 5405
5544 5540 5537 5533 5529 5524 5521 5516 5511 5506 5500 5495 5490 5484 5478 5471 5463 5457 5451 5445 5440 5435 5430 5425 5420 5417 5413 5410 5407 5404 5402 5401 5400 5400 5400 5399 5399 5399 5399 5401 5403 5405 5406
5528 5525 5521 5517 5513 5509 5505 5500 5495 5489 5484 5479 5473 5467 5460 5454 5447 5441 5436 5431 5426 5421 5416 5411 5407 5404 5401 5399 5397 5395 5394 5393 5394 5395 5396 5397 5397 5399 5401 5401 5403 5403 5404
5514 5510 5507 5503 5498 5495 5491 5485 5479 5474 5469 5464 5458 5451 5445 5440 5433 5427 5422 5417 5412 5407 5402 5398 5395 5393 5390 5389 5388 5388 5388 5388 5389 5390 5392 5394 5397 5399 5402 5403 5403 5404 5404
5502 5498 5495 5491 5486 5481 5477 5471 5465 5460 5455 5449 5442 5437 5431 5425 5420 5415 5409 5404 5398 5394 5390 5386 5383 5382 5382 5382 5382 5383 5384 5384 5385 5387 5390 5394 5397 5400 5402 5403 5404 5404 5404
5491 5487 5483 5478 5473 5469 5465 5460 5455 5449 5443 5436 5429 5424 5418 5412 5407 5402 5397 5392 5388 5384 5380 5377 5375 5374 5375 5375 5376 5377 5378 5380 5383 5386 5390 5394 5397 5400 5401 5402 5403 5403 5402
5479 5475 5470 5466 5461 5458 5455 5451 5445 5439 5432 5425 5418 5412 5406 5401 5396 5392 5387 5384 5380 5376 5373 5371 5368 5367 5369 5368 5368 5369 5373 5376 5379 5383 5389 5393 5396 5398 5400 5401 5402 5403 5403
5469 5464 5460 5457 5453 5450 5446 5441 5436 5430 5422 5414 5407 5401 5396 5392 5388 5384 5380 5377 5374 5371 5368 5365 5363 5362 5362 5363 5365 5368 5371 5376 5379 5384 5387 5391 5393 5395 5397 5400 5402 5403 5404